Weather History for Ogden Hill AFB, UT

Change the Weather History Date:

Friday, March 28, 2014

  Actual Average Record
Temperature  
Mean Temperature 43 °F -  
Max Temperature 52 °F 52 °F 64 °F (2013)
Min Temperature 35 °F 34 °F 23 °F (2008)
Degree Days  
Heating Degree Days 22    
Moisture  
Dew Point 26 °F    
Average Humidity 56    
Maximum Humidity 76    
Minimum Humidity 28    
Precipitation  
Precipitation 0.00 in - - ()
Sea Level Pressure  
Sea Level Pressure 30.08 in    
Wind  
Wind Speed 8 mph (South)    
Max Wind Speed 13 mph    
Max Gust Speed -    
Visibility 10 miles    
Events      
Averages and records for this station are not official NWS values.
T = Trace of Precipitation, MM = Missing Value Source: NWS Daily Summary

Daily Weather History Graph

Daily Weather History Graph

Search for Another Location

Airport:

Trip Planner

Search our weather history database for the weather conditions in past years. The results will help you decide how hot, cold, wet, or windy it might be!

Date:

Astronomy

Mar. 28, 2014 Rise Set
Actual Time 7:17 AM MDT 7:48 PM MDT
Civil Twilight 6:50 AM MDT 8:16 PM MDT
Nautical Twilight 6:17 AM MDT 8:49 PM MDT
Astronomical Twilight 5:44 AM MDT 9:22 PM MDT
Moon 5:52 AM MDT (3/28) 5:48 PM MDT (3/28)
Length of Visible Light 13h 26m
Length of Day
12h 31m
Waning Crescent, 6% of the Moon is Illuminated
Mar 28
Waning Crescent
Mar 30
New
Apr 7
First Quarter
Apr 15
Full
Apr 22
Last Quarter

Hourly Weather History & Observations

Time (MDT) Temp. Windchill Dew Point Humidity Pressure Visibility Wind Dir Wind Speed Gust Speed Precip Events Conditions
12:58 AM 35.8 °F 29.4 °F 27.9 °F 73% 29.98 in 10.0 mi SW 8.1 mph - N/A   Scattered Clouds
1:18 AM 35.6 °F 28.0 °F 28.4 °F 75% 29.99 in 10.0 mi South 10.4 mph - N/A   Mostly Cloudy
1:58 AM 37.0 °F 31.0 °F 29.1 °F 73% 30.00 in 10.0 mi South 8.1 mph - N/A   Overcast
2:21 AM 37.4 °F 32.1 °F 28.4 °F 70% 30.01 in 10.0 mi South 6.9 mph - N/A   Mostly Cloudy
2:34 AM 37.4 °F 32.8 °F 28.4 °F 70% 30.01 in 10.0 mi SSW 5.8 mph - N/A   Overcast
2:35 AM 37.4 °F 33.8 °F 28.4 °F 70% 30.01 in 10.0 mi SSW 4.6 mph - N/A   Mostly Cloudy
2:45 AM 37.4 °F 31.4 °F 28.4 °F 70% 30.01 in 10.0 mi South 8.1 mph - N/A   Overcast
2:58 AM 37.9 °F 30.0 °F 27.7 °F 67% 30.01 in 10.0 mi South 12.7 mph - 0.00 in   Overcast
3:08 AM 37.4 °F 30.3 °F 26.6 °F 65% 30.01 in 10.0 mi South 10.4 mph - N/A   Mostly Cloudy
3:13 AM 37.4 °F 30.3 °F 26.6 °F 65% 30.01 in 10.0 mi South 10.4 mph - N/A   Scattered Clouds
3:23 AM 37.4 °F 30.8 °F 26.6 °F 65% 30.01 in 10.0 mi South 9.2 mph - N/A   Mostly Cloudy
3:28 AM 37.4 °F 30.3 °F 28.4 °F 70% 30.01 in 10.0 mi South 10.4 mph - N/A   Mostly Cloudy
3:33 AM 37.4 °F 31.4 °F 28.4 °F 70% 30.01 in 10.0 mi South 8.1 mph - N/A   Mostly Cloudy
3:58 AM 37.8 °F 31.3 °F 28.0 °F 68% 30.01 in 10.0 mi South 9.2 mph - N/A   Overcast
4:58 AM 37.8 °F 33.3 °F 28.2 °F 68% 30.01 in 10.0 mi South 5.8 mph - N/A   Overcast
5:58 AM 37.8 °F 31.3 °F 28.0 °F 68% 30.03 in 10.0 mi South 9.2 mph - N/A   Mostly Cloudy
6:08 AM 37.4 °F 32.1 °F 28.4 °F 70% 30.05 in 10.0 mi SSW 6.9 mph - N/A   Overcast
6:43 AM 35.6 °F 30.7 °F 28.4 °F 75% 30.07 in 10.0 mi SSE 5.8 mph - N/A   Mostly Cloudy
6:58 AM 35.4 °F 32.6 °F 28.6 °F 76% 30.07 in 10.0 mi SE 3.5 mph - N/A   Mostly Cloudy
7:03 AM 35.6 °F 32.8 °F 28.4 °F 75% 30.08 in 10.0 mi SE 3.5 mph - N/A   Scattered Clouds
7:58 AM 37.0 °F 31.6 °F 28.2 °F 70% 30.09 in 10.0 mi South 6.9 mph - N/A   Scattered Clouds
8:58 AM 39.6 °F 34.0 °F 29.3 °F 67% 30.12 in 10.0 mi South 8.1 mph - N/A   Scattered Clouds
9:03 AM 41.0 °F 35.2 °F 30.2 °F 65% 30.13 in 10.0 mi South 9.2 mph - N/A   Mostly Cloudy
9:51 AM 41.0 °F 35.8 °F 30.2 °F 65% 30.14 in 10.0 mi South 8.1 mph - N/A   Scattered Clouds
9:58 AM 41.5 °F 36.4 °F 29.3 °F 62% 30.14 in 10.0 mi South 8.1 mph - N/A   Partly Cloudy
10:58 AM 43.5 °F 40.1 °F 28.4 °F 55% 30.16 in 10.0 mi SW 5.8 mph - N/A   Scattered Clouds
11:43 AM 44.6 °F 40.7 °F 26.6 °F 49% 30.18 in 10.0 mi West 6.9 mph - N/A   Mostly Cloudy
11:59 AM 44.6 °F 40.2 °F 26.6 °F 49% 30.17 in 10.0 mi SW 8.1 mph - N/A   Scattered Clouds
12:40 PM 46.4 °F 42.4 °F 19.4 °F 34% 30.19 in 10.0 mi WSW 8.1 mph - N/A   Mostly Cloudy
12:58 PM 46.2 °F - 20.7 °F 36% 30.18 in 10.0 mi Variable 1.2 mph - N/A   Scattered Clouds
1:58 PM 48.7 °F - 19.0 °F 31% 30.16 in 10.0 mi WSW 8.1 mph - N/A   Scattered Clouds
2:58 PM 50.0 °F - 19.0 °F 29% 30.14 in 10.0 mi Variable 5.8 mph - N/A   Partly Cloudy
3:58 PM 50.4 °F - 20.1 °F 30% 30.13 in 10.0 mi SSW 6.9 mph - N/A   Mostly Cloudy
4:08 PM 50.0 °F - 21.2 °F 32% 30.16 in 10.0 mi SSW 6.9 mph - N/A   Scattered Clouds
4:13 PM 50.0 °F - 21.2 °F 32% 30.16 in 10.0 mi Variable 1.2 mph - N/A   Mostly Cloudy
4:28 PM 51.8 °F - 19.4 °F 28% 30.15 in 10.0 mi Variable 6.9 mph - N/A   Scattered Clouds
4:58 PM 51.6 °F - 20.3 °F 29% 30.12 in 10.0 mi SW 5.8 mph - N/A   Partly Cloudy
5:58 PM 50.5 °F - 20.1 °F 30% 30.11 in 10.0 mi Variable 3.5 mph - N/A   Clear
6:58 PM 50.0 °F - 23.5 °F 36% 30.11 in 10.0 mi SSE 8.1 mph - N/A   Clear
7:58 PM 46.2 °F 41.7 °F 25.9 °F 45% 30.09 in 10.0 mi SE 9.2 mph - N/A   Clear
8:58 PM 45.5 °F 40.8 °F 23.2 °F 41% 30.11 in 10.0 mi ESE 9.2 mph - N/A   Clear
9:58 PM 44.6 °F 40.2 °F 23.4 °F 43% 30.11 in 10.0 mi SE 8.1 mph - N/A   Clear
10:58 PM 42.3 °F 37.3 °F 24.4 °F 49% 30.09 in 10.0 mi SE 8.1 mph - N/A   Clear
11:58 PM 43.0 °F 36.8 °F 23.4 °F 46% 30.07 in 10.0 mi ESE 11.5 mph - N/A   Clear